Year,Month,Day,Hour,Minute,Value (Times are PST for temperature in C)
2018,10,20,00,00,7.70
2018,10,20,00,01,7.60
2018,10,20,00,02,7.60
2018,10,20,00,03,7.60
2018,10,20,00,04,7.60
2018,10,20,00,05,7.60
2018,10,20,00,06,7.60
2018,10,20,00,07,7.60
2018,10,20,00,08,7.60
2018,10,20,00,09,7.50
2018,10,20,00,10,7.50
2018,10,20,00,11,7.50
2018,10,20,00,12,7.50
2018,10,20,00,13,7.40
2018,10,20,00,14,7.40
2018,10,20,00,15,7.40
2018,10,20,00,16,7.40
2018,10,20,00,17,7.30
2018,10,20,00,18,7.30
2018,10,20,00,19,7.30
2018,10,20,00,20,7.20
2018,10,20,00,21,7.20
2018,10,20,00,22,7.20
2018,10,20,00,23,7.20
2018,10,20,00,24,7.20
2018,10,20,00,25,7.20
2018,10,20,00,26,7.20
2018,10,20,00,27,7.20
2018,10,20,00,28,7.20
2018,10,20,00,29,7.20
2018,10,20,00,30,7.20
2018,10,20,00,31,7.10
2018,10,20,00,32,7.10
2018,10,20,00,33,7.10
2018,10,20,00,34,7.10
2018,10,20,00,35,7.00
2018,10,20,00,36,7.00
2018,10,20,00,37,7.00
2018,10,20,00,38,7.00
2018,10,20,00,39,6.90
2018,10,20,00,40,6.90
2018,10,20,00,41,6.90
2018,10,20,00,42,6.90
2018,10,20,00,43,6.90
2018,10,20,00,44,6.90
2018,10,20,00,45,6.90
2018,10,20,00,46,6.90
2018,10,20,00,47,6.90
2018,10,20,00,48,6.90
2018,10,20,00,49,6.90
2018,10,20,00,50,6.90
2018,10,20,00,51,6.80
2018,10,20,00,52,6.80
2018,10,20,00,53,6.80
2018,10,20,00,54,6.80
2018,10,20,00,55,6.80
2018,10,20,00,56,6.80
2018,10,20,00,57,6.80
2018,10,20,00,58,6.80
2018,10,20,00,59,6.70
2018,10,20,01,00,6.70
2018,10,20,01,01,6.70
2018,10,20,01,02,6.70
2018,10,20,01,03,6.70
2018,10,20,01,04,6.70
2018,10,20,01,05,6.70
2018,10,20,01,06,6.60
2018,10,20,01,07,6.60
2018,10,20,01,08,6.60
2018,10,20,01,09,6.60
2018,10,20,01,10,6.60
2018,10,20,01,11,6.60
2018,10,20,01,12,6.50
2018,10,20,01,13,6.50
2018,10,20,01,14,6.40
2018,10,20,01,15,6.40
2018,10,20,01,16,6.40
2018,10,20,01,17,6.40
2018,10,20,01,18,6.30
2018,10,20,01,19,6.40
2018,10,20,01,20,6.30
2018,10,20,01,21,6.30
2018,10,20,01,22,6.30
2018,10,20,01,23,6.30
2018,10,20,01,24,6.30
2018,10,20,01,25,6.30
2018,10,20,01,26,6.30
2018,10,20,01,27,6.30
2018,10,20,01,28,6.30
2018,10,20,01,29,6.30
2018,10,20,01,30,6.30
2018,10,20,01,31,6.30
2018,10,20,01,32,6.30
2018,10,20,01,33,6.30
2018,10,20,01,34,6.30
2018,10,20,01,35,6.30
2018,10,20,01,36,6.20
2018,10,20,01,37,6.20
2018,10,20,01,38,6.20
2018,10,20,01,39,6.20
2018,10,20,01,40,6.20
2018,10,20,01,41,6.20
2018,10,20,01,42,6.20
2018,10,20,01,43,6.20
2018,10,20,01,44,6.20
2018,10,20,01,45,6.20
2018,10,20,01,46,6.20
2018,10,20,01,47,6.20
2018,10,20,01,48,6.20
2018,10,20,01,49,6.20
2018,10,20,01,50,6.20
2018,10,20,01,51,6.20
2018,10,20,01,52,6.20
2018,10,20,01,53,6.20
2018,10,20,01,54,6.20
2018,10,20,01,55,6.20
2018,10,20,01,56,6.10
2018,10,20,01,57,6.10
2018,10,20,01,58,6.10
2018,10,20,01,59,6.10
2018,10,20,02,00,6.10
2018,10,20,02,01,6.10
2018,10,20,02,02,6.10
2018,10,20,02,03,6.10
2018,10,20,02,04,6.10
2018,10,20,02,05,6.10
2018,10,20,02,06,6.10
2018,10,20,02,07,6.10
2018,10,20,02,08,6.10
2018,10,20,02,09,6.10
2018,10,20,02,10,6.00
2018,10,20,02,11,6.00
2018,10,20,02,12,6.00
2018,10,20,02,13,6.00
2018,10,20,02,14,6.00
2018,10,20,02,15,6.00
2018,10,20,02,16,5.90
2018,10,20,02,17,5.90
2018,10,20,02,18,5.90
2018,10,20,02,19,5.90
2018,10,20,02,20,5.90
2018,10,20,02,21,5.90
2018,10,20,02,22,5.90
2018,10,20,02,23,5.90
2018,10,20,02,24,5.90
2018,10,20,02,25,5.90
2018,10,20,02,26,5.80
2018,10,20,02,27,5.80
2018,10,20,02,28,5.80
2018,10,20,02,29,5.80
2018,10,20,02,30,5.80
2018,10,20,02,31,5.80
2018,10,20,02,32,5.70
2018,10,20,02,33,5.70
2018,10,20,02,34,5.70
2018,10,20,02,35,5.70
2018,10,20,02,36,5.70
2018,10,20,02,37,5.70
2018,10,20,02,38,5.70
2018,10,20,02,39,5.70
2018,10,20,02,40,5.70
2018,10,20,02,41,5.70
2018,10,20,02,42,5.60
2018,10,20,02,43,5.60
2018,10,20,02,44,5.60
2018,10,20,02,45,5.60
2018,10,20,02,46,5.60
2018,10,20,02,47,5.60
2018,10,20,02,48,5.60
2018,10,20,02,49,5.50
2018,10,20,02,50,5.50
2018,10,20,02,51,5.50
2018,10,20,02,52,5.50
2018,10,20,02,53,5.50
2018,10,20,02,54,5.40
2018,10,20,02,55,5.40
2018,10,20,02,56,5.40
2018,10,20,02,57,5.40
2018,10,20,02,58,5.40
2018,10,20,02,59,5.30
2018,10,20,03,00,5.30
2018,10,20,03,01,5.30
2018,10,20,03,02,5.30
2018,10,20,03,03,5.30
2018,10,20,03,04,5.30
2018,10,20,03,05,5.30
2018,10,20,03,06,5.40
2018,10,20,03,07,5.40
2018,10,20,03,08,5.40
2018,10,20,03,09,5.40
2018,10,20,03,10,5.40
2018,10,20,03,11,5.40
2018,10,20,03,12,5.40
2018,10,20,03,13,5.40
2018,10,20,03,14,5.40
2018,10,20,03,15,5.40
2018,10,20,03,16,5.50
2018,10,20,03,17,5.50
2018,10,20,03,18,5.40
2018,10,20,03,19,5.40
2018,10,20,03,20,5.40
2018,10,20,03,21,5.40
2018,10,20,03,22,5.40
2018,10,20,03,23,5.40
2018,10,20,03,24,5.40
2018,10,20,03,25,5.40
2018,10,20,03,26,5.30
2018,10,20,03,27,5.30
2018,10,20,03,28,5.30
2018,10,20,03,29,5.30
2018,10,20,03,30,5.30
2018,10,20,03,31,5.30
2018,10,20,03,32,5.30
2018,10,20,03,33,5.30
2018,10,20,03,34,5.30
2018,10,20,03,35,5.30
2018,10,20,03,36,5.30
2018,10,20,03,37,5.30
2018,10,20,03,38,5.30
2018,10,20,03,39,5.30
2018,10,20,03,40,5.20
2018,10,20,03,41,5.20
2018,10,20,03,42,5.20
2018,10,20,03,43,5.20
2018,10,20,03,44,5.20
2018,10,20,03,45,5.20
2018,10,20,03,46,5.20
2018,10,20,03,47,5.20
2018,10,20,03,48,5.20
2018,10,20,03,49,5.20
2018,10,20,03,50,5.10
2018,10,20,03,51,5.10
2018,10,20,03,52,5.10
2018,10,20,03,53,5.10
2018,10,20,03,54,5.10
2018,10,20,03,55,5.10
2018,10,20,03,56,5.10
2018,10,20,03,57,5.10
2018,10,20,03,58,5.10
2018,10,20,03,59,5.10
2018,10,20,04,00,5.10
2018,10,20,04,01,5.10
2018,10,20,04,02,5.10
2018,10,20,04,03,5.10
2018,10,20,04,04,5.10
2018,10,20,04,05,5.10
2018,10,20,04,06,5.10
2018,10,20,04,07,5.10
2018,10,20,04,08,5.10
2018,10,20,04,09,5.10
2018,10,20,04,10,5.10
2018,10,20,04,11,5.10
2018,10,20,04,12,5.10
2018,10,20,04,13,5.10
2018,10,20,04,14,5.00
2018,10,20,04,15,5.00
2018,10,20,04,16,5.00
2018,10,20,04,17,5.00
2018,10,20,04,18,5.00
2018,10,20,04,19,4.90
2018,10,20,04,20,4.90
2018,10,20,04,21,4.90
2018,10,20,04,22,4.90
2018,10,20,04,23,4.90
2018,10,20,04,24,4.90
2018,10,20,04,25,4.90
2018,10,20,04,26,4.90
2018,10,20,04,27,4.90
2018,10,20,04,28,4.90
2018,10,20,04,29,4.80
2018,10,20,04,30,4.80
2018,10,20,04,31,4.80
2018,10,20,04,32,4.80
2018,10,20,04,33,4.80
2018,10,20,04,34,4.80
2018,10,20,04,35,4.70
2018,10,20,04,36,4.70
2018,10,20,04,37,4.70
2018,10,20,04,38,4.70
2018,10,20,04,39,4.70
2018,10,20,04,40,4.70
2018,10,20,04,41,4.70
2018,10,20,04,42,4.70
2018,10,20,04,43,4.70
2018,10,20,04,44,4.70
2018,10,20,04,45,4.70
2018,10,20,04,46,4.60
2018,10,20,04,47,4.60
2018,10,20,04,48,4.60
2018,10,20,04,49,4.60
2018,10,20,04,50,4.60
2018,10,20,04,51,4.60
2018,10,20,04,52,4.60
2018,10,20,04,53,4.60
2018,10,20,04,54,4.60
2018,10,20,04,55,4.60
2018,10,20,04,56,4.60
2018,10,20,04,57,4.60
2018,10,20,04,58,4.60
2018,10,20,04,59,4.60
2018,10,20,05,00,4.60
2018,10,20,05,01,4.60
2018,10,20,05,02,4.60
2018,10,20,05,03,4.70
2018,10,20,05,04,4.70
2018,10,20,05,05,4.70
2018,10,20,05,06,4.70
2018,10,20,05,07,4.70
2018,10,20,05,08,4.70
2018,10,20,05,09,4.70
2018,10,20,05,10,4.70
2018,10,20,05,11,4.70
2018,10,20,05,12,4.70
2018,10,20,05,13,4.70
2018,10,20,05,14,4.70
2018,10,20,05,15,4.70
2018,10,20,05,16,4.70
2018,10,20,05,17,4.70
2018,10,20,05,18,4.70
2018,10,20,05,19,4.70
2018,10,20,05,20,4.70
2018,10,20,05,21,4.70
2018,10,20,05,22,4.70
2018,10,20,05,23,4.70
2018,10,20,05,24,4.70
2018,10,20,05,25,4.70
2018,10,20,05,26,4.70
2018,10,20,05,27,4.70
2018,10,20,05,28,4.60
2018,10,20,05,29,4.60
2018,10,20,05,30,4.60
2018,10,20,05,31,4.60
2018,10,20,05,32,4.60
2018,10,20,05,33,4.60
2018,10,20,05,34,4.60
2018,10,20,05,35,4.60
2018,10,20,05,36,4.60
2018,10,20,05,37,4.60
2018,10,20,05,38,4.60
2018,10,20,05,39,4.60
2018,10,20,05,40,4.60
2018,10,20,05,41,4.60
2018,10,20,05,42,4.60
2018,10,20,05,43,4.60
2018,10,20,05,44,4.60
2018,10,20,05,45,4.60
2018,10,20,05,46,4.60
2018,10,20,05,47,4.60
2018,10,20,05,48,4.60
2018,10,20,05,49,4.60
2018,10,20,05,50,4.60
2018,10,20,05,51,4.60
2018,10,20,05,52,4.60
2018,10,20,05,53,4.60
2018,10,20,05,54,4.60
2018,10,20,05,55,4.50
2018,10,20,05,56,4.50
2018,10,20,05,57,4.50
2018,10,20,05,58,4.50
2018,10,20,05,59,4.50
2018,10,20,06,00,4.50
2018,10,20,06,01,4.50
2018,10,20,06,02,4.50
2018,10,20,06,03,4.40
2018,10,20,06,04,4.40
2018,10,20,06,05,4.40
2018,10,20,06,06,4.40
2018,10,20,06,07,4.40
2018,10,20,06,08,4.40
2018,10,20,06,09,4.40
2018,10,20,06,10,4.40
2018,10,20,06,11,4.40
2018,10,20,06,12,4.40
2018,10,20,06,13,4.30
2018,10,20,06,14,4.30
2018,10,20,06,15,4.30
2018,10,20,06,16,4.30
2018,10,20,06,17,4.30
2018,10,20,06,18,4.30
2018,10,20,06,19,4.30
2018,10,20,06,20,4.30
2018,10,20,06,21,4.30
2018,10,20,06,22,4.30
2018,10,20,06,23,4.30
2018,10,20,06,24,4.30
2018,10,20,06,25,4.30
2018,10,20,06,26,4.30
2018,10,20,06,27,4.30
2018,10,20,06,28,4.30
2018,10,20,06,29,4.30
2018,10,20,06,30,4.30
2018,10,20,06,31,4.30
2018,10,20,06,32,4.30
2018,10,20,06,33,4.30
2018,10,20,06,34,4.30
2018,10,20,06,35,4.30
2018,10,20,06,36,4.30
2018,10,20,06,37,4.30
2018,10,20,06,38,4.30
2018,10,20,06,39,4.30
2018,10,20,06,40,4.30
2018,10,20,06,41,4.30
2018,10,20,06,42,4.30
2018,10,20,06,43,4.30
2018,10,20,06,44,4.30
2018,10,20,06,45,4.30
2018,10,20,06,46,4.30
2018,10,20,06,47,4.30
2018,10,20,06,48,4.30
2018,10,20,06,49,4.30
2018,10,20,06,50,4.20
2018,10,20,06,51,4.20
2018,10,20,06,52,4.20
2018,10,20,06,53,4.20
2018,10,20,06,54,4.20
2018,10,20,06,55,4.20
2018,10,20,06,56,4.30
2018,10,20,06,57,4.30
2018,10,20,06,58,4.30
2018,10,20,06,59,4.30
2018,10,20,07,00,4.30
2018,10,20,07,01,4.30
2018,10,20,07,02,4.30
2018,10,20,07,03,4.30
2018,10,20,07,04,4.30
2018,10,20,07,05,4.30
2018,10,20,07,06,4.30
2018,10,20,07,07,4.30
2018,10,20,07,08,4.30
2018,10,20,07,09,4.30
2018,10,20,07,10,4.30
2018,10,20,07,11,4.30
2018,10,20,07,12,4.30
2018,10,20,07,13,4.30
2018,10,20,07,14,4.30
2018,10,20,07,15,4.30
2018,10,20,07,16,4.30
2018,10,20,07,17,4.30
2018,10,20,07,18,4.30
2018,10,20,07,19,4.30
2018,10,20,07,20,4.30
2018,10,20,07,21,4.30
2018,10,20,07,22,4.30
2018,10,20,07,23,4.20
2018,10,20,07,24,4.20
2018,10,20,07,25,4.20
2018,10,20,07,26,4.20
2018,10,20,07,27,4.20
2018,10,20,07,28,4.20
2018,10,20,07,29,4.20
2018,10,20,07,30,4.20
2018,10,20,07,31,4.20
2018,10,20,07,32,4.20
2018,10,20,07,33,4.20
2018,10,20,07,34,4.20
2018,10,20,07,35,4.20
2018,10,20,07,36,4.20
2018,10,20,07,37,4.20
2018,10,20,07,38,4.20
2018,10,20,07,39,4.20
2018,10,20,07,40,4.20
2018,10,20,07,41,4.20
2018,10,20,07,42,4.20
2018,10,20,07,43,4.20
2018,10,20,07,44,4.20
2018,10,20,07,45,4.20
2018,10,20,07,46,4.30
2018,10,20,07,47,4.30
2018,10,20,07,48,4.30
2018,10,20,07,49,4.30
2018,10,20,07,50,4.30
2018,10,20,07,51,4.30
2018,10,20,07,52,4.30
2018,10,20,07,53,4.30
2018,10,20,07,54,4.30
2018,10,20,07,55,4.30
2018,10,20,07,56,4.30
2018,10,20,07,57,4.30
2018,10,20,07,58,4.30
2018,10,20,07,59,4.30
2018,10,20,08,00,4.30
2018,10,20,08,01,4.30
2018,10,20,08,02,4.30
2018,10,20,08,03,4.30
2018,10,20,08,04,4.30
2018,10,20,08,05,4.30
2018,10,20,08,06,4.30
2018,10,20,08,07,4.30
2018,10,20,08,08,4.30
2018,10,20,08,09,4.30
2018,10,20,08,10,4.30
2018,10,20,08,11,4.30
2018,10,20,08,12,4.30
2018,10,20,08,13,4.30
2018,10,20,08,14,4.40
2018,10,20,08,15,4.40
2018,10,20,08,16,4.40
2018,10,20,08,17,4.40
2018,10,20,08,18,4.40
2018,10,20,08,19,4.40
2018,10,20,08,20,4.40
2018,10,20,08,21,4.40
2018,10,20,08,22,4.40
2018,10,20,08,23,4.30
2018,10,20,08,24,4.30
2018,10,20,08,25,4.30
2018,10,20,08,26,4.30
2018,10,20,08,27,4.30
2018,10,20,08,28,4.30
2018,10,20,08,29,4.30
2018,10,20,08,30,4.30
2018,10,20,08,31,4.30
2018,10,20,08,32,4.30
2018,10,20,08,33,4.30
2018,10,20,08,34,4.30
2018,10,20,08,35,4.30
2018,10,20,08,36,4.30
2018,10,20,08,37,4.30
2018,10,20,08,38,4.30
2018,10,20,08,39,4.30
2018,10,20,08,40,4.30
2018,10,20,08,41,4.30
2018,10,20,08,42,4.30
2018,10,20,08,43,4.30
2018,10,20,08,44,4.40
2018,10,20,08,45,4.40
2018,10,20,08,46,4.40
2018,10,20,08,47,4.40
2018,10,20,08,48,4.50
2018,10,20,08,49,4.50
2018,10,20,08,50,4.50
2018,10,20,08,51,4.60
2018,10,20,08,52,4.60
2018,10,20,08,53,4.60
2018,10,20,08,54,4.60
2018,10,20,08,55,4.70
2018,10,20,08,56,4.70
2018,10,20,08,57,4.70
2018,10,20,08,58,4.80
2018,10,20,08,59,4.80
2018,10,20,09,00,4.80
2018,10,20,09,01,4.80
2018,10,20,09,02,4.90
2018,10,20,09,03,4.90
2018,10,20,09,04,4.90
2018,10,20,09,05,4.90
2018,10,20,09,06,4.90
2018,10,20,09,07,5.00
2018,10,20,09,08,5.00
2018,10,20,09,09,5.00
2018,10,20,09,10,5.00
2018,10,20,09,11,5.10
2018,10,20,09,12,5.10
2018,10,20,09,13,5.10
2018,10,20,09,14,5.10
2018,10,20,09,15,5.10
2018,10,20,09,16,5.10
2018,10,20,09,17,5.10
2018,10,20,09,18,5.20
2018,10,20,09,19,5.20
2018,10,20,09,20,5.20
2018,10,20,09,21,5.20
2018,10,20,09,22,5.30
2018,10,20,09,23,5.30
2018,10,20,09,24,5.30
2018,10,20,09,25,5.30
2018,10,20,09,26,5.30
2018,10,20,09,27,5.40
2018,10,20,09,28,5.40
2018,10,20,09,29,5.40
2018,10,20,09,30,5.40
2018,10,20,09,31,5.50
2018,10,20,09,32,5.50
2018,10,20,09,33,5.50
2018,10,20,09,34,5.50
2018,10,20,09,35,5.60
2018,10,20,09,36,5.60
2018,10,20,09,37,5.60
2018,10,20,09,38,5.70
2018,10,20,09,39,5.70
2018,10,20,09,40,5.70
2018,10,20,09,41,5.70
2018,10,20,09,42,5.80
2018,10,20,09,43,5.80
2018,10,20,09,44,5.80
2018,10,20,09,45,5.90
2018,10,20,09,46,5.90
2018,10,20,09,47,5.90
2018,10,20,09,48,5.90
2018,10,20,09,49,6.00
2018,10,20,09,50,6.00
2018,10,20,09,51,6.10
2018,10,20,09,52,6.20
2018,10,20,09,53,6.20
2018,10,20,09,54,6.30
2018,10,20,09,55,6.30
2018,10,20,09,56,6.40
2018,10,20,09,57,6.50
2018,10,20,09,58,6.50
2018,10,20,09,59,6.60
2018,10,20,10,00,6.70
2018,10,20,10,01,6.70
2018,10,20,10,02,6.70
2018,10,20,10,03,6.80
2018,10,20,10,04,6.80
2018,10,20,10,05,6.90
2018,10,20,10,06,6.90
2018,10,20,10,07,6.90
2018,10,20,10,08,7.00
2018,10,20,10,09,7.00
2018,10,20,10,10,7.10
2018,10,20,10,11,7.10
2018,10,20,10,12,7.20
2018,10,20,10,13,7.20
2018,10,20,10,14,7.20
2018,10,20,10,15,7.20
2018,10,20,10,16,7.20
2018,10,20,10,17,7.20
2018,10,20,10,18,7.30
2018,10,20,10,19,7.40
2018,10,20,10,20,7.40
2018,10,20,10,21,7.50
2018,10,20,10,22,7.50
2018,10,20,10,23,7.60
2018,10,20,10,24,7.60
2018,10,20,10,25,7.70
2018,10,20,10,26,7.80
2018,10,20,10,27,7.80
2018,10,20,10,28,7.90
2018,10,20,10,29,8.00
2018,10,20,10,30,8.00
2018,10,20,10,31,8.10
2018,10,20,10,32,8.10
2018,10,20,10,33,8.20
2018,10,20,10,34,8.20
2018,10,20,10,35,8.30
2018,10,20,10,36,8.30
2018,10,20,10,37,8.40
2018,10,20,10,38,8.50
2018,10,20,10,39,8.60
2018,10,20,10,40,8.70
2018,10,20,10,41,8.80
2018,10,20,10,42,8.90
2018,10,20,10,43,9.00
2018,10,20,10,44,9.10
2018,10,20,10,45,9.30
2018,10,20,10,46,9.40
2018,10,20,10,47,9.50
2018,10,20,10,48,9.60
2018,10,20,10,49,9.70
2018,10,20,10,50,9.90
2018,10,20,10,51,10.00
2018,10,20,10,52,10.10
2018,10,20,10,53,10.20
2018,10,20,10,54,10.30
2018,10,20,10,55,10.40
2018,10,20,10,56,10.50
2018,10,20,10,57,10.60
2018,10,20,10,58,10.70
2018,10,20,10,59,10.80
2018,10,20,11,00,10.80
2018,10,20,11,01,10.90
2018,10,20,11,02,11.00
2018,10,20,11,03,11.10
2018,10,20,11,04,11.10
2018,10,20,11,05,11.20
2018,10,20,11,06,11.20
2018,10,20,11,07,11.30
2018,10,20,11,08,11.30
2018,10,20,11,09,11.40
2018,10,20,11,10,11.40
2018,10,20,11,11,11.50
2018,10,20,11,12,11.60
2018,10,20,11,13,11.60
2018,10,20,11,14,11.70
2018,10,20,11,15,11.80
2018,10,20,11,16,11.90
2018,10,20,11,17,11.90
2018,10,20,11,18,12.00
2018,10,20,11,19,12.10
2018,10,20,11,20,12.10
2018,10,20,11,21,12.10
2018,10,20,11,22,12.00
2018,10,20,11,23,12.00
2018,10,20,11,24,12.00
2018,10,20,11,25,12.00
2018,10,20,11,26,12.10
2018,10,20,11,27,12.10
2018,10,20,11,28,12.20
2018,10,20,11,29,12.20
2018,10,20,11,30,12.30
2018,10,20,11,31,12.30
2018,10,20,11,32,12.30
2018,10,20,11,33,12.40
2018,10,20,11,34,12.40
2018,10,20,11,35,12.50
2018,10,20,11,36,12.60
2018,10,20,11,37,12.60
2018,10,20,11,38,12.70
2018,10,20,11,39,12.70
2018,10,20,11,40,12.70
2018,10,20,11,41,12.80
2018,10,20,11,42,12.80
2018,10,20,11,43,12.80
2018,10,20,11,44,12.90
2018,10,20,11,45,12.90
2018,10,20,11,46,13.00
2018,10,20,11,47,13.00
2018,10,20,11,48,13.10
2018,10,20,11,49,13.20
2018,10,20,11,50,13.30
2018,10,20,11,51,13.30
2018,10,20,11,52,13.40
2018,10,20,11,53,13.50
2018,10,20,11,54,13.60
2018,10,20,11,55,13.70
2018,10,20,11,56,13.80
2018,10,20,11,57,13.80
2018,10,20,11,58,13.90
2018,10,20,11,59,14.00
2018,10,20,12,00,14.20
2018,10,20,12,01,14.20
2018,10,20,12,02,14.30
2018,10,20,12,03,14.40
2018,10,20,12,04,14.50
2018,10,20,12,05,14.50
2018,10,20,12,06,14.50
2018,10,20,12,07,14.60
2018,10,20,12,08,14.60
2018,10,20,12,09,14.60
2018,10,20,12,10,14.60
2018,10,20,12,11,14.70
2018,10,20,12,12,14.80
2018,10,20,12,13,14.90
2018,10,20,12,14,15.00
2018,10,20,12,15,15.00
2018,10,20,12,16,15.00
2018,10,20,12,17,15.00
2018,10,20,12,18,15.00
2018,10,20,12,19,15.00
2018,10,20,12,20,15.00
2018,10,20,12,21,15.00
2018,10,20,12,22,15.00
2018,10,20,12,23,15.00
2018,10,20,12,24,15.00
2018,10,20,12,25,15.00
2018,10,20,12,26,15.00
2018,10,20,12,27,15.00
2018,10,20,12,28,15.10
2018,10,20,12,29,15.20
2018,10,20,12,30,15.30
2018,10,20,12,31,15.40
2018,10,20,12,32,15.50
2018,10,20,12,33,15.60
2018,10,20,12,34,15.70
2018,10,20,12,35,15.70
2018,10,20,12,36,15.80
2018,10,20,12,37,15.80
2018,10,20,12,38,15.80
2018,10,20,12,39,15.80
2018,10,20,12,40,15.80
2018,10,20,12,41,15.80
2018,10,20,12,42,15.80
2018,10,20,12,43,15.80
2018,10,20,12,44,15.80
2018,10,20,12,45,15.90
2018,10,20,12,46,15.90
2018,10,20,12,47,16.00
2018,10,20,12,48,16.00
2018,10,20,12,49,16.10
2018,10,20,12,50,16.10
2018,10,20,12,51,16.20
2018,10,20,12,52,16.20
2018,10,20,12,53,16.20
2018,10,20,12,54,16.20
2018,10,20,12,55,16.20
2018,10,20,12,56,16.20
2018,10,20,12,57,16.10
2018,10,20,12,58,16.10
2018,10,20,12,59,16.10
2018,10,20,13,00,16.10
2018,10,20,13,01,16.10
2018,10,20,13,02,16.20
2018,10,20,13,03,16.20
2018,10,20,13,04,16.30
2018,10,20,13,05,16.30
2018,10,20,13,06,16.30
2018,10,20,13,07,16.30
2018,10,20,13,08,16.40
2018,10,20,13,09,16.40
2018,10,20,13,10,16.40
2018,10,20,13,11,16.40
2018,10,20,13,12,16.40
2018,10,20,13,13,16.50
2018,10,20,13,14,16.60
2018,10,20,13,15,16.60
2018,10,20,13,16,16.70
2018,10,20,13,17,16.70
2018,10,20,13,18,16.70
2018,10,20,13,19,16.80
2018,10,20,13,20,16.80
2018,10,20,13,21,16.90
2018,10,20,13,22,16.90
2018,10,20,13,23,17.00
2018,10,20,13,24,17.00
2018,10,20,13,25,17.10
2018,10,20,13,26,17.10
2018,10,20,13,27,17.10
2018,10,20,13,28,17.20
2018,10,20,13,29,17.20
2018,10,20,13,30,17.20
2018,10,20,13,31,17.20
2018,10,20,13,32,17.20
2018,10,20,13,33,17.20
2018,10,20,13,34,17.20
2018,10,20,13,35,17.30
2018,10,20,13,36,17.30
2018,10,20,13,37,17.30
2018,10,20,13,38,17.30
2018,10,20,13,39,17.30
2018,10,20,13,40,17.30
2018,10,20,13,41,17.20
2018,10,20,13,42,17.20
2018,10,20,13,43,17.20
2018,10,20,13,44,17.20
2018,10,20,13,45,17.20
2018,10,20,13,46,17.20
2018,10,20,13,47,17.20
2018,10,20,13,48,17.20
2018,10,20,13,49,17.20
2018,10,20,13,50,17.20
2018,10,20,13,51,17.20
2018,10,20,13,52,17.30
2018,10,20,13,53,17.40
2018,10,20,13,54,17.40
2018,10,20,13,55,17.40
2018,10,20,13,56,17.50
2018,10,20,13,57,17.50
2018,10,20,13,58,17.40
2018,10,20,13,59,17.40
2018,10,20,14,00,17.40
2018,10,20,14,01,17.40
2018,10,20,14,02,17.30
2018,10,20,14,03,17.20
2018,10,20,14,04,17.10
2018,10,20,14,05,17.10
2018,10,20,14,06,17.00
2018,10,20,14,07,17.00
2018,10,20,14,08,17.00
2018,10,20,14,09,17.00
2018,10,20,14,10,16.90
2018,10,20,14,11,16.90
2018,10,20,14,12,17.00
2018,10,20,14,13,17.00
2018,10,20,14,14,17.10
2018,10,20,14,15,17.10
2018,10,20,14,16,17.10
2018,10,20,14,17,17.10
2018,10,20,14,18,17.10
2018,10,20,14,19,17.10
2018,10,20,14,20,17.10
2018,10,20,14,21,17.10
2018,10,20,14,22,17.10
2018,10,20,14,23,17.10
2018,10,20,14,24,17.20
2018,10,20,14,25,17.20
2018,10,20,14,26,17.20
2018,10,20,14,27,17.30
2018,10,20,14,28,17.30
2018,10,20,14,29,17.30
2018,10,20,14,30,17.30
2018,10,20,14,31,17.30
2018,10,20,14,32,17.30
2018,10,20,14,33,17.30
2018,10,20,14,34,17.30
2018,10,20,14,35,17.30
2018,10,20,14,36,17.30
2018,10,20,14,37,17.40
2018,10,20,14,38,17.40
2018,10,20,14,39,17.30
2018,10,20,14,40,17.30
2018,10,20,14,41,17.30
2018,10,20,14,42,17.30
2018,10,20,14,43,17.20
2018,10,20,14,44,17.20
2018,10,20,14,45,17.20
2018,10,20,14,46,17.20
2018,10,20,14,47,17.20
2018,10,20,14,48,17.20
2018,10,20,14,49,17.20
2018,10,20,14,50,17.20
2018,10,20,14,51,17.20
2018,10,20,14,52,17.20
2018,10,20,14,53,17.20
2018,10,20,14,54,17.20
2018,10,20,14,55,17.20
2018,10,20,14,56,17.30
2018,10,20,14,57,17.30
2018,10,20,14,58,17.30
2018,10,20,14,59,17.30
2018,10,20,15,00,17.40
2018,10,20,15,01,17.40
2018,10,20,15,02,17.40
2018,10,20,15,03,17.30
2018,10,20,15,04,17.30
2018,10,20,15,05,17.30
2018,10,20,15,06,17.20
2018,10,20,15,07,17.20
2018,10,20,15,08,17.10
2018,10,20,15,09,17.10
2018,10,20,15,10,17.10
2018,10,20,15,11,17.10
2018,10,20,15,12,17.10
2018,10,20,15,13,17.20
2018,10,20,15,14,17.20
2018,10,20,15,15,17.20
2018,10,20,15,16,17.20
2018,10,20,15,17,17.20
2018,10,20,15,18,17.20
2018,10,20,15,19,17.20
2018,10,20,15,20,17.20
2018,10,20,15,21,17.20
2018,10,20,15,22,17.20
2018,10,20,15,23,17.20
2018,10,20,15,24,17.10
2018,10,20,15,25,17.10
2018,10,20,15,26,17.10
2018,10,20,15,27,17.10
2018,10,20,15,28,17.10
2018,10,20,15,29,17.20
2018,10,20,15,30,17.20
2018,10,20,15,31,17.20
2018,10,20,15,32,17.20
2018,10,20,15,33,17.20
2018,10,20,15,34,17.30
2018,10,20,15,35,17.30
2018,10,20,15,36,17.30
2018,10,20,15,37,17.30
2018,10,20,15,38,17.30
2018,10,20,15,39,17.30
2018,10,20,15,40,17.30
2018,10,20,15,41,17.30
2018,10,20,15,42,17.40
2018,10,20,15,43,17.40
2018,10,20,15,44,17.40
2018,10,20,15,45,17.40
2018,10,20,15,46,17.40
2018,10,20,15,47,17.30
2018,10,20,15,48,17.30
2018,10,20,15,49,17.30
2018,10,20,15,50,17.20
2018,10,20,15,51,17.20
2018,10,20,15,52,17.20
2018,10,20,15,53,17.20
2018,10,20,15,54,17.10
2018,10,20,15,55,17.10
2018,10,20,15,56,17.10
2018,10,20,15,57,17.10
2018,10,20,15,58,17.10
2018,10,20,15,59,17.10
2018,10,20,16,00,17.10
2018,10,20,16,01,17.10
2018,10,20,16,02,17.10
2018,10,20,16,03,17.10
2018,10,20,16,04,17.10
2018,10,20,16,05,17.10
2018,10,20,16,06,17.10
2018,10,20,16,07,17.10
2018,10,20,16,08,17.10
2018,10,20,16,09,17.10
2018,10,20,16,10,17.10
2018,10,20,16,11,17.10
2018,10,20,16,12,17.10
2018,10,20,16,13,17.10
2018,10,20,16,14,17.10
2018,10,20,16,15,17.10
2018,10,20,16,16,17.10
2018,10,20,16,17,17.10
2018,10,20,16,18,17.10
2018,10,20,16,19,17.10
2018,10,20,16,20,17.10
2018,10,20,16,21,17.10
2018,10,20,16,22,17.10
2018,10,20,16,23,17.10
2018,10,20,16,24,17.10
2018,10,20,16,25,17.10
2018,10,20,16,26,17.10
2018,10,20,16,27,17.10
2018,10,20,16,28,17.00
2018,10,20,16,29,17.00
2018,10,20,16,30,17.00
2018,10,20,16,31,17.00
2018,10,20,16,32,17.00
2018,10,20,16,33,17.00
2018,10,20,16,34,17.00
2018,10,20,16,35,17.00
2018,10,20,16,36,17.00
2018,10,20,16,37,17.00
2018,10,20,16,38,17.00
2018,10,20,16,39,17.00
2018,10,20,16,40,17.00
2018,10,20,16,41,17.00
2018,10,20,16,42,17.00
2018,10,20,16,43,17.00
2018,10,20,16,44,17.00
2018,10,20,16,45,17.00
2018,10,20,16,46,17.00
2018,10,20,16,47,17.00
2018,10,20,16,48,17.00
2018,10,20,16,49,16.90
2018,10,20,16,50,16.90
2018,10,20,16,51,16.90
2018,10,20,16,52,16.90
2018,10,20,16,53,16.90
2018,10,20,16,54,16.90
2018,10,20,16,55,16.90
2018,10,20,16,56,16.90
2018,10,20,16,57,16.90
2018,10,20,16,58,16.90
2018,10,20,16,59,16.90
2018,10,20,17,00,16.90
2018,10,20,17,01,16.90
2018,10,20,17,02,16.90
2018,10,20,17,03,16.90
2018,10,20,17,04,16.90
2018,10,20,17,05,16.90
2018,10,20,17,06,16.80
2018,10,20,17,07,16.80
2018,10,20,17,08,16.80
2018,10,20,17,09,16.80
2018,10,20,17,10,16.80
2018,10,20,17,11,16.80
2018,10,20,17,12,16.80
2018,10,20,17,13,16.80
2018,10,20,17,14,16.80
2018,10,20,17,15,16.80
2018,10,20,17,16,16.80
2018,10,20,17,17,16.80
2018,10,20,17,18,16.80
2018,10,20,17,19,16.80
2018,10,20,17,20,16.80
2018,10,20,17,21,16.70
2018,10,20,17,22,16.70
2018,10,20,17,23,16.70
2018,10,20,17,24,16.70
2018,10,20,17,25,16.70
2018,10,20,17,26,16.70
2018,10,20,17,27,16.70
2018,10,20,17,28,16.70
2018,10,20,17,29,16.60
2018,10,20,17,30,16.60
2018,10,20,17,31,16.60
2018,10,20,17,32,16.50
2018,10,20,17,33,16.50
2018,10,20,17,34,16.50
2018,10,20,17,35,16.40
2018,10,20,17,36,16.40
2018,10,20,17,37,16.40
2018,10,20,17,38,16.40
2018,10,20,17,39,16.30
2018,10,20,17,40,16.30
2018,10,20,17,41,16.30
2018,10,20,17,42,16.30
2018,10,20,17,43,16.20
2018,10,20,17,44,16.20
2018,10,20,17,45,16.20
2018,10,20,17,46,16.20
2018,10,20,17,47,16.10